Location: Kingsgate Bay
(51.3833°N, 1.4444°E)
Time: 19:18:45
(UTC+00:00)

Daily predictions for brighter satellites

Satellite Brightness Start Highest point End
(mag) Time Altitude Azimuth Time Altitude Azimuth Time Altitude Azimuth
BREEZE-M DEB (TANK) 4.5 19:52:32 10° W 19:56:13 72° S 20:07:25 10° ESE
ATLAS 2AS CENTAUR R/B 4.2 19:55:55 10° NW 20:02:52 35° NNE 20:09:24 10° ENE
BREEZE M DEB (TANK) 4.1 20:00:24 10° SW 20:04:08 59° SSE 20:16:00 10° ENE
Intercosmos 25 Rocket 4.4 19:57:18 10° N 20:04:52 86° ENE 20:09:21 10° S
Cosmos 1486 Rocket 4.3 20:01:15 10° S 20:06:21 48° ESE 20:11:29 10° NNE
Cosmos 1500 Rocket 4.0 20:03:03 10° NNW 20:07:26 65° W 20:11:46 10° S
Cosmos 1833 Rocket 3.9 20:03:04 10° NNW 20:08:05 31° NE 20:13:05 10° ESE
IGS 5A 3.6 20:05:44 10° SSE 20:09:48 59° ENE 20:13:55 10° N
Cosmos 2221 3.4 20:07:51 10° SSW 20:12:05 55° WNW 20:16:22 10° N
BREEZE-M R/B 3.3 20:10:40 10° SSW 20:12:33 18° SSE 20:14:20 10° ESE
S3M 4.2 20:06:42 10° S 20:12:57 59° E 20:19:10 10° NNE
USA 186 4.2 20:12:47 10° SW 20:14:22 15° W 20:15:54 10° NW
Cosmos 1666 Rocket 4.1 20:11:09 10° N 20:15:24 43° ENE 20:19:35 10° SE
USA 215 4.0 20:13:38 10° ENE 20:19:59 55° N 20:26:20 10° WNW
USA 305 3.3 20:18:51 10° WNW 20:23:05 62° N 20:27:20 10° E
Cosmos 1933 3.6 20:19:20 10° SSE 20:23:13 48° E 20:27:07 10° NNE
USA 245 3.2 20:23:48 12° SE 20:25:32 26° ENE 20:27:30 10° N
Cosmos 1242 Rocket 3.0 20:25:19 10° SSE 20:28:42 41° E 20:32:05 10° NNE
OBJECT-B 3.3 20:26:31 10° SW 20:29:01 21° W 20:31:34 10° NW
Cosmos 1553 Rocket 4.2 20:25:27 10° SSW 20:31:35 77° W 20:37:52 10° N
BREEZE M DEB (TANK) 2.2 20:25:32 10° W 20:31:44 68° S 20:34:07 11° ESE
Cosmos 773 Rocket 4.4 20:27:01 10° NNW 20:32:14 53° ENE 20:37:01 12° SE
Cosmos 1437 Rocket 2.9 20:28:47 10° SSW 20:32:39 81° W 20:36:39 10° N
Resurs 01 Rocket 1.9 20:30:56 10° S 20:35:22 70° WSW 20:39:51 10° NNW
Sich 1 3.2 20:33:26 10° NNW 20:37:46 74° W 20:42:06 10° S
COSMOS 2406 3.8 20:33:16 10° NNW 20:38:44 45° NE 20:43:43 12° ESE
Spot 2 Rocket 3.7 20:34:12 11° SE 20:39:00 57° ENE 20:43:57 10° N
SJ 16-02 3.4 20:38:19 10° ESE 20:39:37 11° E 20:41:04 10° ENE
Meteor 1-20 Rocket 4.3 20:35:06 10° NNW 20:40:47 80° W 20:46:20 10° S
Cosmos 2082 Rocket 3.5 20:36:23 10° NNW 20:41:19 30° NE 20:46:13 10° ESE
USA 306 3.2 20:38:00 10° WNW 20:42:15 66° N 20:46:31 10° E
CZ-4C R/B 3.1 20:36:53 10° NW 20:43:45 70° NE 20:51:18 12° ESE
Cosmos 1500 3.8 20:40:51 10° N 20:44:26 40° ENE 20:47:10 15° SE
Gbstr 26 Del rocket 4.3 20:38:05 10° WSW 20:46:02 86° SSE 20:52:50 10° E
Cosmos 1782 3.1 20:43:26 10° S 20:47:17 48° E 20:51:09 10° NNE
ERS-1 Rocket 3.3 20:50:52 15° SE 20:54:57 53° ENE 20:59:51 10° N
SPOT 5 3.3 20:52:52 15° SE 20:56:56 54° ENE 21:02:05 10° N
Cosmos 1503 Rocket 3.9 20:51:58 10° SSW 20:57:07 72° ESE 21:02:19 10° NNE
ERBS 4.2 20:55:32 10° WNW 20:58:31 30° N 21:01:30 10° ENE
Intercosmos 24 4.2 20:55:45 10° SSW 20:59:26 58° WNW 21:03:00 10° N
SOZ 4.1 20:57:14 10° WSW 20:59:46 63° SSE 21:02:05 10° E
USA 290 3.6 20:57:13 10° NW 21:00:13 34° WSW 21:02:58 11° S
Cosmos 1271 Rocket 4.4 21:00:22 16° ESE 21:01:46 19° E 21:04:36 10° NE
Cosmos 1151 Rocket 3.0 20:58:23 10° S 21:02:43 72° E 21:07:06 10° NNE
Cosmos 1602 4.0 20:59:00 10° NNW 21:02:51 67° W 21:06:20 12° S
CREW DRAGON DEMO-1 DEB 2.3 21:00:17 10° W 21:02:56 89° N 21:04:38 20° E
Terra 2.4 21:02:23 17° SE 21:05:44 46° ENE 21:10:18 10° N
USA 307 3.0 21:03:20 10° WNW 21:07:38 74° NNE 21:11:26 13° E
Cosmos 2278 Rocket 3.0 21:05:44 16° SSE 21:09:21 30° ESE 21:14:13 10° NE
CZ-2C R/B 3.8 21:06:55 10° NNE 21:11:23 80° WNW 21:15:54 10° SSW
X-37B 2.1 21:17:26 10° WSW 21:19:55 21° SSW 21:20:10 21° S
Cosmos 1515 Rocket 3.8 21:17:35 20° SSE 21:20:28 51° E 21:24:46 10° NNE
SWARM C 4.4 21:17:39 10° N 21:21:00 85° E 21:22:52 24° S
SWARM A 4.1 21:17:46 10° N 21:21:07 87° E 21:23:01 23° S
USA 308 2.9 21:16:49 10° WNW 21:21:08 81° NNE 21:24:24 17° ESE
Cosmos 1844 Rocket 3.5 21:16:02 10° SW 21:21:30 54° NW 21:27:00 10° NNE
Cosmos 2084 3.9 21:17:53 10° SSW 21:21:41 37° SE 21:25:37 10° ENE
SPOT 1/Viking Rocket 4.2 21:16:47 11° S 21:21:43 53° W 21:26:49 10° NNW
Cosmos 1536 4.2 21:18:32 10° N 21:21:58 26° ENE 21:23:48 19° ESE
ARIANE 5 R/B 2.9 21:20:39 16° S 21:24:00 64° WSW 21:28:20 10° NNW
JB-3 4.2 21:21:07 10° NNE 21:25:04 76° ESE 21:27:55 18° S
Cosmos 1437 2.3 21:25:47 25° SSW 21:27:15 89° SSE 21:30:08 10° NNE
Cosmos 1633 Rocket 3.9 21:23:22 10° NNW 21:27:35 47° W 21:31:23 12° SSW
Cosmos 1354 Rocket 4.1 21:23:12 10° SSW 21:28:26 78° WNW 21:33:44 10° NNE
Cosmos 2154 Rocket 4.5 21:22:54 10° N 21:29:02 49° ENE 21:33:02 21° SE
Cosmos 1812 2.6 21:31:31 23° S 21:33:48 72° E 21:37:40 10° NNE
Cosmos 1470 Rocket 3.9 21:32:26 10° NNW 21:36:53 64° W 21:39:57 20° S
Cosmos 2184 Rocket 4.0 21:30:55 10° N 21:37:11 75° ENE 21:41:19 22° SSE
Meteor 1-5 Rocket 4.1 21:32:56 10° NNW 21:38:25 81° W 21:42:00 21° S
Cosmos 1328 Rocket 4.0 21:36:53 10° SSW 21:41:16 61° WNW 21:45:40 10° N
NOSS 3-4 (A) 3.9 21:34:42 10° NW 21:41:32 79° NE 21:47:02 20° SE
NOSS 3-4 (C) 3.9 21:34:48 10° NW 21:41:38 79° NE 21:47:09 20° SE
ATLAS 5 CENTAUR R/B 3.4 21:38:01 10° WNW 21:43:03 34° WSW 21:47:13 17° S
Cosmos 2074 Rocket 4.0 21:38:49 10° N 21:45:10 86° E 21:49:22 23° S
Cosmos 1666 2.7 21:46:51 10° NNW 21:50:35 72° W 21:52:12 32° S
Cosmos 1933 Rocket 3.7 21:47:08 10° NNW 21:51:27 67° W 21:53:49 26° S
Cosmos 1833 Rocket 2.9 21:46:50 10° NW 21:52:27 64° WSW 21:55:42 25° S
NOSS 3-3 (A) 3.9 21:46:47 10° SW 21:52:37 80° SE 21:59:23 10° NE
NOSS 3-3 (C) 3.9 21:46:53 10° SW 21:52:43 80° SE 21:59:28 10° NE
ATLAS 2AS CENTAUR R/B 3.1 21:47:40 10° NW 21:55:12 65° NE 22:00:32 18° ESE
Meteor 2-12 Rocket 4.4 21:49:23 10° N 21:55:31 78° ENE 21:59:02 27° SSE
Nadezhda 1 Rocket 4.2 21:51:52 25° SSE 21:55:32 56° E 22:01:38 10° NNE
Cosmos 1743 3.9 21:52:19 10° N 21:55:45 30° ENE 21:56:52 25° ESE
BREEZE-M DEB (TANK) 2.7 21:56:53 10° W 21:57:57 24° WSW 21:57:57 24° WSW
Cosmos 1538 Rocket 4.3 21:55:45 10° NNW 22:01:04 61° WSW 22:03:56 27° S
BREEZE-M DEB (TANK) 3.2 21:53:19 10° W 22:02:03 84° NNW 22:04:41 12° ENE
USA 215 3.6 21:56:10 10° E 22:02:38 66° NNE 22:09:06 10° WNW
USA 305 2.9 21:58:54 10° WNW 22:03:09 67° SSW 22:04:41 37° SE
Iridium 4 Rocket 3.9 22:01:47 19° SSW 22:05:56 73° W 22:11:53 10° N
Cosmos 1610 Rocket 4.4 22:01:02 10° N 22:07:15 82° E 22:10:38 28° SSE
Cosmos 158 Rocket 3.8 22:08:31 10° NNW 22:13:23 74° WSW 22:15:28 35° S
Cosmos 1733 Rocket 4.0 22:10:39 10° N 22:14:40 35° ENE 22:16:02 28° ESE
SJ 16-02 1.2 22:15:14 30° SSW 22:17:25 85° ESE 22:21:54 10° NNE
Cosmos 1680 Rocket 3.6 22:13:42 10° NNW 22:19:04 74° ENE 22:21:27 34° SE
Cosmos 2228 Rocket 3.0 22:17:34 35° S 22:19:24 87° E 22:23:54 10° N
Cosmos 2341 Rocket 4.3 22:13:34 10° N 22:19:55 60° ENE 22:23:08 30° SE
Meteor 1-27 Rocket 3.8 22:18:37 29° S 22:21:41 75° E 22:27:37 10° NNE
USA 306 3.0 22:18:02 10° WNW 22:22:13 54° SSW 22:23:05 45° SSE
COSMOS 2406 4.1 22:17:46 10° NW 22:23:00 39° WSW 22:25:47 24° SSW
Cosmos 1818 4.3 22:18:39 10° NW 22:24:01 50° NE 22:27:40 20° ESE
Cosmos 2082 Rocket 2.3 22:20:17 10° NW 22:25:52 67° WSW 22:28:19 34° S
H-2A R/B 4.3 22:27:40 10° N 22:31:44 49° WNW 22:34:17 21° SW
CZ-4C R/B 3.6 22:25:34 10° NW 22:32:19 42° WSW 22:36:28 25° S
Gbstr 26 Del rocket 4.1 22:26:02 10° W 22:33:35 90° SSW 22:39:48 10° E
BREEZE-M R/B 4.4 22:31:33 10° W 22:31:52 13° WSW 22:31:52 13° WSW
ERBS 3.6 22:32:03 10° NW 22:35:11 38° NNE 22:37:04 20° ENE
Cosmos 1271 Rocket 3.6 22:35:27 25° SW 22:37:25 47° WNW 22:41:19 10° N
Cosmos 2218 Rocket 4.4 22:33:00 10° N 22:39:08 55° ENE 22:42:06 31° SE
Meteor 1-11 Rocket 4.4 22:36:21 10° NNW 22:42:07 50° W 22:45:14 26° SSW
Terra 3.4 22:41:15 18° SW 22:43:41 27° W 22:47:45 10° NW
Okean 1 3.7 22:46:34 44° ESE 22:46:57 45° E 22:50:47 10° NNE
USA 307 3.4 22:43:26 10° WNW 22:47:29 41° SW 22:47:31 41° SW
Cosmos 1340 Rocket 3.0 22:44:45 10° NNW 22:48:49 67° W 22:49:40 51° SSW
Cosmos 2278 Rocket 2.8 22:47:35 10° SW 22:53:08 57° NW 22:58:45 10° NNE
Cosmos 923 Rocket 4.5 22:49:03 10° NNW 22:54:06 49° WSW 22:55:53 35° SSW
Cosmos 1544 3.6 22:51:17 10° NNW 22:54:45 46° W 22:55:12 43° WSW
Spot 4 3.8 22:53:27 44° S 22:55:00 82° WSW 22:59:54 10° NNW
Cosmos 1515 3.6 22:55:28 62° ESE 22:55:43 65° E 22:59:29 10° NNE
Cosmos 1862 Rocket 3.8 22:57:00 47° SE 22:57:40 52° E 23:01:53 10° NNE
Cosmos 1536 4.0 22:54:45 10° NNW 22:58:27 34° W 22:59:30 29° WSW
Cosmos 1898 Rocket 3.5 22:57:39 42° S 22:59:21 67° ESE 23:04:40 10° NNE
USA 308 3.8 22:56:59 10° WNW 23:00:30 34° SW 23:00:30 34° SW
Cosmos 2369 Rocket 3.3 23:03:27 25° ESE 23:04:16 26° ESE 23:08:49 10° NE
RESURS DK-1 4.1 23:03:51 10° NNW 23:07:27 27° NE 23:09:52 16° E
Gblst 52 Del rocket 4.4 23:01:12 10° W 23:08:13 85° SSW 23:14:16 10° ESE
Meteor 2-9 Rocket 4.2 23:02:33 10° NNW 23:08:26 85° ENE 23:10:35 41° SSE
COBE Rocket 4.2 23:07:04 40° SE 23:08:47 64° ENE 23:13:52 10° N
SL-8 Rocket 4.0 23:02:30 10° N 23:08:53 84° W 23:11:34 37° S
Cosmos 1975 2.8 23:07:42 10° N 23:11:42 68° ENE 23:12:12 59° ESE
Cosmos 2084 Rocket 3.4 23:08:05 10° NW 23:12:21 88° NE 23:13:20 54° SE
Cosmos 1943 Rocket 2.4 23:11:55 41° SSE 23:13:21 52° ESE 23:18:46 10° NE
SAR-Lupe-2 4.0 23:11:11 10° NNE 23:14:31 49° E 23:14:31 49° E
ALOS 2 2.5 23:16:05 57° S 23:16:59 85° WSW 23:21:24 10° NNW
Cosmos 44 3.6 23:14:02 10° NW 23:19:26 63° SW 23:20:48 46° S
DNEPR-1 R/B 4.3 23:19:57 43° SSE 23:20:59 48° SE 23:25:46 10° NE
Cosmos 1707 Rocket 4.1 23:20:02 38° SW 23:21:21 52° WNW 23:25:41 10° N
Meteor 2-4 Rocket 4.1 23:20:31 37° SE 23:22:20 50° E 23:27:46 10° NNE
Cosmos 990 Rocket 4.2 23:20:01 32° SW 23:22:26 71° WNW 23:27:42 10° NNE
Okean 1-7 3.6 23:30:15 38° ESE 23:30:44 40° E 23:34:45 10° NNE
Cosmos 1743 4.1 23:28:10 10° NNW 23:31:26 27° W 23:31:55 26° WSW
Cosmos 372 Rocket 4.2 23:30:36 45° SSE 23:31:37 53° ESE 23:36:34 10° NNE
Cosmos 1238 Rocket 4.3 23:28:10 10° NNW 23:34:25 54° W 23:36:39 35° SSW
Meteor 1-18 Rocket 4.1 23:33:04 42° S 23:35:05 90° ESE 23:40:44 10° NNE
SL-24 R/B - RUBIN 2 4.3 23:31:30 10° NW 23:36:44 45° WSW 23:37:29 42° SW
SeaSat 1 3.0 23:33:01 10° NE 23:37:40 39° ESE 23:38:19 38° SE
Cosmos 2242 Rocket 3.8 23:40:22 50° SE 23:41:03 57° E 23:45:25 10° NNE
USA 215 3.2 23:42:21 30° SE 23:45:42 65° SW 23:52:13 10° WNW
ATLAS 2AS CENTAUR R/B 3.3 23:39:06 10° NW 23:45:53 41° WSW 23:47:56 34° SSW
Cosmos 2297 3.8 23:45:51 33° SW 23:48:33 74° WNW 23:54:15 10° NNE
Cosmos 1733 Rocket 4.3 23:48:40 10° NNW 23:52:21 27° W 23:53:07 26° WSW
SJ 16-02 3.9 23:53:42 10° W 23:56:38 17° NW 23:59:35 10° N
